Time,TemperatureF,DewpointF,PressureIn,WindDirection,WindDirectionDegrees,WindSpeedMPH,WindSpeedGustMPH,Humidity,HourlyPrecipIn,Conditions,Clouds,dailyrainin,SoftwareType,DateUTC
2013-01-23 00:04:00,56.5,46.5,29.77,West,270,0.0,2.9,69,0.00,,---,0.00,VWS V13.01,2013-01-22 22:04:00,
2013-01-23 00:09:00,56.3,46.3,29.77,WSW,247,0.0,1.3,69,0.00,,---,0.00,VWS V13.01,2013-01-22 22:09:00,
2013-01-23 00:14:00,56.3,46.3,29.77,SSW,202,0.0,2.5,69,0.00,,---,0.00,VWS V13.01,2013-01-22 22:14:00,
2013-01-23 00:19:00,56.3,46.3,29.77,WSW,247,0.0,2.2,69,0.00,,---,0.00,VWS V13.01,2013-01-22 22:19:00,
2013-01-23 00:24:00,56.3,46.3,29.77,West,270,0.0,3.1,69,0.00,,---,0.00,VWS V13.01,2013-01-22 22:24:00,
2013-01-23 00:29:00,56.3,46.3,29.77,West,270,0.0,1.3,69,0.00,,---,0.00,VWS V13.01,2013-01-22 22:29:00,
2013-01-23 00:34:00,56.3,46.3,29.77,NNW,337,3.4,3.4,69,0.00,,---,0.00,VWS V13.01,2013-01-22 22:34:00,
2013-01-23 00:39:00,56.3,46.3,29.77,NW,315,0.0,3.8,69,0.00,,---,0.00,VWS V13.01,2013-01-22 22:39:00,
2013-01-23 00:44:00,56.3,46.3,29.77,SW,225,0.0,3.1,69,0.00,,---,0.00,VWS V13.01,2013-01-22 22:44:00,
2013-01-23 00:49:00,56.1,45.7,29.77,West,270,0.0,2.5,68,0.00,,---,0.00,VWS V13.01,2013-01-22 22:49:00,
2013-01-23 00:54:00,56.1,46.1,29.77,WSW,247,0.0,2.9,69,0.00,,---,0.00,VWS V13.01,2013-01-22 22:54:00,
2013-01-23 00:59:00,55.9,45.9,29.77,WNW,292,0.0,2.0,69,0.00,,---,0.00,VWS V13.01,2013-01-22 22:59:00,
2013-01-23 01:04:00,55.9,45.9,29.77,WNW,292,0.0,3.1,69,0.00,,---,0.00,VWS V13.01,2013-01-22 23:04:00,
2013-01-23 01:09:00,55.8,45.8,29.77,WNW,292,0.0,2.7,69,0.00,,---,0.00,VWS V13.01,2013-01-22 23:09:00,
2013-01-23 01:14:00,55.6,45.6,29.77,SW,225,0.0,1.1,69,0.00,,---,0.00,VWS V13.01,2013-01-22 23:14:00,
2013-01-23 01:19:00,55.6,45.6,29.77,SW,225,0.0,3.4,69,0.00,,---,0.00,VWS V13.01,2013-01-22 23:19:00,
2013-01-23 01:24:00,55.2,45.6,29.77,SSW,202,0.0,2.2,70,0.00,,---,0.00,VWS V13.01,2013-01-22 23:24:00,
2013-01-23 01:29:00,55.2,45.6,29.77,SW,225,0.0,2.2,70,0.00,,---,0.00,VWS V13.01,2013-01-22 23:29:00,
2013-01-23 01:34:00,55.0,45.4,29.78,South,180,0.0,0.9,70,0.00,,---,0.00,VWS V13.01,2013-01-22 23:34:00,
2013-01-23 01:40:00,54.9,45.7,29.78,SW,225,0.0,1.6,71,0.00,,---,0.00,VWS V13.01,2013-01-22 23:40:00,
2013-01-23 01:45:00,54.7,45.5,29.78,West,270,0.0,3.1,71,0.00,,---,0.00,VWS V13.01,2013-01-22 23:45:00,
2013-01-23 01:50:00,54.5,45.3,29.78,SW,225,0.0,2.0,71,0.00,,---,0.00,VWS V13.01,2013-01-22 23:50:00,
2013-01-23 01:55:00,54.5,45.7,29.78,WSW,247,0.0,3.1,72,0.00,,---,0.00,VWS V13.01,2013-01-22 23:55:00,
2013-01-23 02:00:00,54.3,45.5,29.78,SSW,202,0.0,3.1,72,0.00,,---,0.00,VWS V13.01,2013-01-23 00:00:00,
2013-01-23 02:05:00,54.3,45.5,29.78,SSW,202,0.0,3.1,72,0.00,,---,0.00,VWS V13.01,2013-01-23 00:05:00,
2013-01-23 02:10:00,54.1,45.3,29.78,SW,225,0.0,2.9,72,0.00,,---,0.00,VWS V13.01,2013-01-23 00:10:00,
2013-01-23 02:15:00,54.1,45.3,29.78,WSW,247,0.0,4.5,72,0.00,,---,0.00,VWS V13.01,2013-01-23 00:15:00,
2013-01-23 02:20:00,54.1,45.3,29.77,WSW,247,0.0,1.6,72,0.00,,---,0.00,VWS V13.01,2013-01-23 00:20:00,
2013-01-23 02:25:00,54.0,45.5,29.77,SSE,157,0.0,4.3,73,0.00,,---,0.00,VWS V13.01,2013-01-23 00:25:00,
2013-01-23 02:30:00,53.8,45.4,29.77,WSW,247,0.0,1.3,73,0.00,,---,0.00,VWS V13.01,2013-01-23 00:30:00,
2013-01-23 02:35:00,53.8,45.4,29.78,WNW,292,0.0,0.7,73,0.00,,---,0.00,VWS V13.01,2013-01-23 00:35:00,
2013-01-23 02:40:00,53.8,45.4,29.78,WSW,247,2.5,2.5,73,0.00,,---,0.00,VWS V13.01,2013-01-23 00:40:00,
2013-01-23 02:45:00,53.8,45.4,29.77,WNW,292,0.0,5.1,73,0.00,,---,0.00,VWS V13.01,2013-01-23 00:45:00,
2013-01-23 02:50:00,53.8,45.4,29.78,WSW,247,0.0,1.8,73,0.00,,---,0.00,VWS V13.01,2013-01-23 00:50:00,
2013-01-23 02:55:00,53.6,44.8,29.78,WSW,247,2.9,4.3,72,0.00,,---,0.00,VWS V13.01,2013-01-23 00:55:00,
2013-01-23 03:00:00,53.8,45.0,29.78,NW,315,0.0,2.9,72,0.00,,---,0.00,VWS V13.01,2013-01-23 01:00:00,
2013-01-23 03:05:00,53.8,44.6,29.78,WSW,247,0.0,2.7,71,0.00,,---,0.00,VWS V13.01,2013-01-23 01:05:00,
2013-01-23 03:10:00,53.8,44.6,29.78,WNW,292,5.1,5.1,71,0.00,,---,0.00,VWS V13.01,2013-01-23 01:10:00,
2013-01-23 03:15:00,53.8,44.6,29.78,SE,135,0.0,8.5,71,0.00,,---,0.00,VWS V13.01,2013-01-23 01:15:00,
2013-01-23 03:20:00,53.8,44.6,29.78,WSW,247,0.0,1.8,71,0.00,,---,0.00,VWS V13.01,2013-01-23 01:20:00,
2013-01-23 03:25:00,54.0,44.5,29.78,South,180,0.0,2.0,70,0.00,,---,0.00,VWS V13.01,2013-01-23 01:25:00,
2013-01-23 03:30:00,54.0,44.5,29.78,West,270,3.8,4.0,70,0.00,,---,0.00,VWS V13.01,2013-01-23 01:30:00,
2013-01-23 03:35:00,54.0,44.5,29.78,SW,225,2.9,2.9,70,0.00,,---,0.00,VWS V13.01,2013-01-23 01:35:00,
2013-01-23 03:40:00,54.0,44.5,29.78,West,270,5.1,6.0,70,0.00,,---,0.00,VWS V13.01,2013-01-23 01:40:00,
2013-01-23 03:45:00,54.1,44.2,29.78,West,270,0.0,7.4,69,0.00,,---,0.00,VWS V13.01,2013-01-23 01:45:00,
2013-01-23 03:50:00,54.0,44.1,29.78,West,270,0.0,5.8,69,0.00,,---,0.00,VWS V13.01,2013-01-23 01:50:00,
2013-01-23 03:55:00,54.0,44.1,29.78,SSW,202,0.0,1.6,69,0.00,,---,0.00,VWS V13.01,2013-01-23 01:55:00,
2013-01-23 04:00:00,54.0,44.1,29.79,SSW,202,0.0,2.0,69,0.00,,---,0.00,VWS V13.01,2013-01-23 02:00:00,
2013-01-23 04:05:00,53.8,43.9,29.79,SSW,202,0.0,2.0,69,0.00,,---,0.00,VWS V13.01,2013-01-23 02:05:00,
2013-01-23 04:10:00,53.8,43.9,29.79,WSW,247,1.6,1.6,69,0.00,,---,0.00,VWS V13.01,2013-01-23 02:10:00,
2013-01-23 04:16:00,53.8,43.9,29.79,WNW,292,0.0,1.6,69,0.00,,---,0.00,VWS V13.01,2013-01-23 02:16:00,
2013-01-23 04:21:00,53.4,43.5,29.78,West,270,0.0,1.8,69,0.00,,---,0.00,VWS V13.01,2013-01-23 02:21:00,
2013-01-23 04:26:00,53.4,43.5,29.78,SW,225,0.0,4.0,69,0.00,,---,0.00,VWS V13.01,2013-01-23 02:26:00,
2013-01-23 04:31:00,53.4,43.5,29.79,West,270,0.0,3.4,69,0.00,,---,0.00,VWS V13.01,2013-01-23 02:31:00,
2013-01-23 04:36:00,53.4,43.5,29.79,SSW,202,0.0,3.4,69,0.00,,---,0.00,VWS V13.01,2013-01-23 02:36:00,
2013-01-23 04:41:00,53.4,43.5,29.79,West,270,1.6,3.6,69,0.00,,---,0.00,VWS V13.01,2013-01-23 02:41:00,
2013-01-23 04:46:00,53.2,43.3,29.79,SW,225,0.0,3.4,69,0.00,,---,0.00,VWS V13.01,2013-01-23 02:46:00,
2013-01-23 04:51:00,53.2,43.3,29.80,NW,315,0.0,5.4,69,0.00,,---,0.00,VWS V13.01,2013-01-23 02:51:00,
2013-01-23 04:56:00,53.2,43.3,29.80,SE,135,0.0,4.3,69,0.00,,---,0.00,VWS V13.01,2013-01-23 02:56:00,
2013-01-23 05:01:00,53.2,42.9,29.80,WNW,292,2.2,4.9,68,0.00,,---,0.00,VWS V13.01,2013-01-23 03:01:00,
2013-01-23 05:06:00,53.4,43.1,29.80,NW,315,0.0,7.6,68,0.00,,---,0.00,VWS V13.01,2013-01-23 03:06:00,
2013-01-23 05:11:00,53.4,43.1,29.80,West,270,0.0,1.1,68,0.00,,---,0.00,VWS V13.01,2013-01-23 03:11:00,
2013-01-23 05:16:00,53.4,43.1,29.80,West,270,4.0,4.0,68,0.00,,---,0.00,VWS V13.01,2013-01-23 03:16:00,
2013-01-23 05:21:00,53.4,43.1,29.80,West,270,1.6,4.3,68,0.00,,---,0.00,VWS V13.01,2013-01-23 03:21:00,
2013-01-23 05:27:00,53.4,43.1,29.81,SW,225,0.0,4.7,68,0.00,,---,0.00,VWS V13.01,2013-01-23 03:27:00,
2013-01-23 05:32:00,53.4,43.1,29.80,WSW,247,0.0,4.0,68,0.00,,---,0.00,VWS V13.01,2013-01-23 03:32:00,
2013-01-23 05:37:00,53.4,43.1,29.80,WNW,292,0.0,1.8,68,0.00,,---,0.00,VWS V13.01,2013-01-23 03:37:00,
2013-01-23 05:42:00,53.2,42.9,29.81,West,270,1.1,4.5,68,0.00,,---,0.00,VWS V13.01,2013-01-23 03:42:00,
2013-01-23 05:47:00,53.2,42.9,29.81,SW,225,0.0,2.2,68,0.00,,---,0.00,VWS V13.01,2013-01-23 03:47:00,
2013-01-23 05:52:00,53.2,42.9,29.81,WSW,247,0.0,1.3,68,0.00,,---,0.00,VWS V13.01,2013-01-23 03:52:00,
2013-01-23 05:57:00,53.2,42.9,29.81,WSW,247,0.0,2.2,68,0.00,,---,0.00,VWS V13.01,2013-01-23 03:57:00,
2013-01-23 06:02:00,53.2,42.9,29.82,West,270,0.0,2.2,68,0.00,,---,0.00,VWS V13.01,2013-01-23 04:02:00,
2013-01-23 06:07:00,53.2,42.9,29.82,SSW,202,0.0,0.7,68,0.00,,---,0.00,VWS V13.01,2013-01-23 04:07:00,
2013-01-23 06:12:00,53.2,42.9,29.82,WNW,292,0.0,1.3,68,0.00,,---,0.00,VWS V13.01,2013-01-23 04:12:00,
2013-01-23 06:17:00,52.9,42.6,29.82,WNW,292,2.7,4.9,68,0.00,,---,0.00,VWS V13.01,2013-01-23 04:17:00,
2013-01-23 06:22:00,52.9,42.6,29.82,SW,225,0.0,3.8,68,0.00,,---,0.00,VWS V13.01,2013-01-23 04:22:00,
2013-01-23 06:27:00,52.9,42.6,29.83,SSW,202,0.0,2.0,68,0.00,,---,0.00,VWS V13.01,2013-01-23 04:27:00,
2013-01-23 06:32:00,52.9,42.6,29.83,WNW,292,4.7,4.7,68,0.00,,---,0.00,VWS V13.01,2013-01-23 04:32:00,
2013-01-23 06:37:00,52.9,42.6,29.83,South,180,0.0,4.0,68,0.00,,---,0.00,VWS V13.01,2013-01-23 04:37:00,
2013-01-23 06:42:00,52.9,42.6,29.84,West,270,3.1,3.1,68,0.00,,---,0.00,VWS V13.01,2013-01-23 04:42:00,
2013-01-23 06:47:00,52.9,42.6,29.84,SW,225,0.0,3.1,68,0.00,,---,0.00,VWS V13.01,2013-01-23 04:47:00,
2013-01-23 06:52:00,52.9,42.6,29.84,North,0,1.8,1.8,68,0.00,,---,0.00,VWS V13.01,2013-01-23 04:52:00,
2013-01-23 06:57:00,53.2,42.9,29.84,SW,225,0.0,2.2,68,0.00,,---,0.00,VWS V13.01,2013-01-23 04:57:00,
2013-01-23 07:00:00,53.2,42.9,29.84,SSW,202,0.0,2.2,68,0.00,,---,0.00,VWS V13.01,2013-01-23 05:00:00,
2013-01-23 07:01:00,53.1,42.8,29.84,SSW,202,0.0,2.2,68,0.00,,---,0.00,VWS V13.01,2013-01-23 05:01:00,
2013-01-23 07:02:00,53.2,42.9,29.84,South,180,0.0,2.2,68,0.00,,---,0.00,VWS V13.01,2013-01-23 05:02:00,
2013-01-23 07:07:00,53.2,42.9,29.84,SW,225,0.0,1.8,68,0.00,,---,0.00,VWS V13.01,2013-01-23 05:07:00,
2013-01-23 07:12:00,53.2,42.9,29.85,SW,225,0.0,2.0,68,0.00,,---,0.00,VWS V13.01,2013-01-23 05:12:00,
2013-01-23 07:17:00,53.2,42.9,29.84,SSE,157,0.0,2.5,68,0.00,,---,0.00,VWS V13.01,2013-01-23 05:17:00,
2013-01-23 07:22:00,53.2,42.9,29.85,SSE,157,0.0,2.7,68,0.00,,---,0.00,VWS V13.01,2013-01-23 05:22:00,
2013-01-23 07:27:00,53.2,42.9,29.85,South,180,0.9,0.9,68,0.00,,---,0.00,VWS V13.01,2013-01-23 05:27:00,
2013-01-23 07:33:00,53.1,42.8,29.85,South,180,2.0,3.1,68,0.00,,---,0.00,VWS V13.01,2013-01-23 05:33:00,
2013-01-23 07:38:00,52.9,42.6,29.85,South,180,1.6,1.6,68,0.00,,---,0.00,VWS V13.01,2013-01-23 05:38:00,
2013-01-23 07:43:00,52.9,42.6,29.85,SSW,202,2.0,3.1,68,0.00,,---,0.00,VWS V13.01,2013-01-23 05:43:00,
2013-01-23 07:48:00,52.9,42.6,29.86,SSW,202,0.0,4.0,68,0.00,,---,0.00,VWS V13.01,2013-01-23 05:48:00,
2013-01-23 07:53:00,52.9,42.6,29.85,South,180,3.6,6.5,68,0.00,,---,0.00,VWS V13.01,2013-01-23 05:53:00,
2013-01-23 07:58:00,52.9,42.6,29.85,SW,225,1.6,7.6,68,0.00,,---,0.00,VWS V13.01,2013-01-23 05:58:00,
2013-01-23 08:03:00,53.1,42.8,29.85,SW,225,0.0,8.3,68,0.00,,---,0.00,VWS V13.01,2013-01-23 06:03:00,
2013-01-23 08:08:00,53.2,42.9,29.86,SSW,202,4.0,4.0,68,0.00,,---,0.00,VWS V13.01,2013-01-23 06:08:00,
2013-01-23 08:13:00,53.2,42.9,29.86,SW,225,5.6,9.6,68,0.00,,---,0.00,VWS V13.01,2013-01-23 06:13:00,
2013-01-23 08:18:00,53.4,43.5,29.85,SSE,157,1.8,1.8,69,0.00,,---,0.00,VWS V13.01,2013-01-23 06:18:00,
2013-01-23 08:23:00,53.4,43.5,29.85,South,180,2.5,14.5,69,0.00,,---,0.00,VWS V13.01,2013-01-23 06:23:00,
2013-01-23 08:28:00,53.4,43.9,29.86,SSW,202,3.6,4.7,70,0.00,,---,0.00,VWS V13.01,2013-01-23 06:28:00,
2013-01-23 08:33:00,53.4,43.9,29.86,SSW,202,0.0,4.0,70,0.00,,---,0.00,VWS V13.01,2013-01-23 06:33:00,
2013-01-23 08:38:00,53.4,43.9,29.87,South,180,0.0,4.7,70,0.00,,---,0.00,VWS V13.01,2013-01-23 06:38:00,
2013-01-23 08:43:00,53.4,43.9,29.87,SW,225,0.0,6.9,70,0.00,,---,0.00,VWS V13.01,2013-01-23 06:43:00,
2013-01-23 08:48:00,53.4,43.9,29.87,WNW,292,0.0,2.2,70,0.00,,---,0.00,VWS V13.01,2013-01-23 06:48:00,
2013-01-23 08:53:00,53.4,43.9,29.88,WSW,247,1.6,1.6,70,0.00,,---,0.00,VWS V13.01,2013-01-23 06:53:00,
2013-01-23 08:58:00,53.4,43.9,29.87,WNW,292,0.0,7.8,70,0.00,,---,0.00,VWS V13.01,2013-01-23 06:58:00,
2013-01-23 09:03:00,53.2,43.7,29.88,West,270,0.0,4.9,70,0.00,,---,0.00,VWS V13.01,2013-01-23 07:03:00,
2013-01-23 09:08:00,53.2,43.7,29.88,NW,315,0.0,1.6,70,0.00,,---,0.00,VWS V13.01,2013-01-23 07:08:00,
2013-01-23 09:13:00,53.2,43.7,29.89,WNW,292,0.0,2.9,70,0.00,,---,0.00,VWS V13.01,2013-01-23 07:13:00,
2013-01-23 09:18:00,53.2,43.3,29.89,SSE,157,0.0,1.6,69,0.00,,---,0.00,VWS V13.01,2013-01-23 07:18:00,
2013-01-23 09:23:00,53.4,43.5,29.89,NW,315,0.0,1.1,69,0.00,,---,0.00,VWS V13.01,2013-01-23 07:23:00,
2013-01-23 09:28:00,53.6,43.7,29.90,WSW,247,0.0,2.7,69,0.00,,---,0.00,VWS V13.01,2013-01-23 07:28:00,
2013-01-23 09:33:00,54.0,43.7,29.90,WNW,292,2.5,4.0,68,0.00,,---,0.00,VWS V13.01,2013-01-23 07:33:00,
2013-01-23 09:38:00,54.1,43.8,29.91,West,270,3.4,3.6,68,0.00,,---,0.00,VWS V13.01,2013-01-23 07:38:00,
2013-01-23 09:43:00,54.5,43.4,29.91,SW,225,4.0,4.0,66,0.00,,---,0.00,VWS V13.01,2013-01-23 07:43:00,
2013-01-23 09:48:00,54.9,43.0,29.90,WSW,247,6.5,6.5,64,0.00,,---,0.00,VWS V13.01,2013-01-23 07:48:00,
2013-01-23 09:53:00,55.2,42.4,29.90,West,270,1.8,5.8,62,0.00,,---,0.00,VWS V13.01,2013-01-23 07:53:00,
2013-01-23 09:58:00,55.8,42.6,29.90,South,180,0.0,3.6,61,0.00,,---,0.00,VWS V13.01,2013-01-23 07:58:00,
2013-01-23 10:03:00,56.1,42.8,29.90,SW,225,0.0,8.3,61,0.00,,---,0.00,VWS V13.01,2013-01-23 08:03:00,
2013-01-23 10:08:00,56.8,42.6,29.90,WNW,292,7.4,10.1,59,0.00,,---,0.00,VWS V13.01,2013-01-23 08:08:00,
2013-01-23 10:13:00,57.0,42.4,29.90,South,180,0.0,8.5,58,0.00,,---,0.00,VWS V13.01,2013-01-23 08:13:00,
2013-01-23 10:18:00,57.4,42.3,29.90,SSW,202,6.0,6.0,57,0.00,,---,0.00,VWS V13.01,2013-01-23 08:18:00,
2013-01-23 10:23:00,57.7,42.6,29.90,SSW,202,2.0,2.7,57,0.00,,---,0.00,VWS V13.01,2013-01-23 08:23:00,
2013-01-23 10:28:00,58.1,43.0,29.91,WNW,292,6.3,6.3,57,0.00,,---,0.00,VWS V13.01,2013-01-23 08:28:00,
2013-01-23 10:33:00,58.3,42.7,29.91,South,180,0.0,2.0,56,0.00,,---,0.00,VWS V13.01,2013-01-23 08:33:00,
2013-01-23 10:38:00,58.5,42.9,29.91,ESE,112,3.6,10.5,56,0.00,,---,0.00,VWS V13.01,2013-01-23 08:38:00,
2013-01-23 10:43:00,58.6,43.0,29.91,NW,315,6.5,9.6,56,0.00,,---,0.00,VWS V13.01,2013-01-23 08:43:00,
2013-01-23 10:48:00,58.6,43.0,29.92,WSW,247,0.0,10.5,56,0.00,,---,0.00,VWS V13.01,2013-01-23 08:48:00,
2013-01-23 10:53:00,58.8,43.6,29.92,WNW,292,0.0,6.0,57,0.00,,---,0.00,VWS V13.01,2013-01-23 08:53:00,
2013-01-23 10:58:00,59.0,43.8,29.92,South,180,4.9,8.3,57,0.00,,---,0.00,VWS V13.01,2013-01-23 08:58:00,
2013-01-23 11:03:00,59.2,44.0,29.93,West,270,0.0,5.6,57,0.00,,---,0.00,VWS V13.01,2013-01-23 09:03:00,
2013-01-23 11:08:00,59.5,44.3,29.93,South,180,3.8,12.8,57,0.00,,---,0.00,VWS V13.01,2013-01-23 09:08:00,
2013-01-23 11:13:00,59.7,44.5,29.93,South,180,3.1,8.9,57,0.00,,---,0.00,VWS V13.01,2013-01-23 09:13:00,
2013-01-23 11:18:00,59.9,44.2,29.93,SE,135,6.0,8.5,56,0.00,,---,0.00,VWS V13.01,2013-01-23 09:18:00,
2013-01-23 11:23:00,59.9,44.2,29.93,South,180,8.3,8.3,56,0.00,,---,0.00,VWS V13.01,2013-01-23 09:23:00,
2013-01-23 11:29:00,59.9,43.7,29.93,WSW,247,4.9,10.5,55,0.00,,---,0.00,VWS V13.01,2013-01-23 09:29:00,
2013-01-23 11:34:00,59.7,43.5,29.93,South,180,1.6,1.6,55,0.00,,---,0.00,VWS V13.01,2013-01-23 09:34:00,
2013-01-23 11:39:00,59.9,43.7,29.92,SSW,202,11.6,11.6,55,0.00,,---,0.00,VWS V13.01,2013-01-23 09:39:00,
2013-01-23 11:44:00,59.9,43.7,29.92,NW,315,1.6,7.4,55,0.00,,---,0.00,VWS V13.01,2013-01-23 09:44:00,
2013-01-23 11:49:00,60.1,43.9,29.92,South,180,0.0,3.8,55,0.00,,---,0.00,VWS V13.01,2013-01-23 09:49:00,
2013-01-23 11:54:00,60.1,43.4,29.91,West,270,2.2,2.2,54,0.00,,---,0.00,VWS V13.01,2013-01-23 09:54:00,
2013-01-23 11:59:00,60.1,43.4,29.91,WNW,292,2.5,7.6,54,0.00,,---,0.00,VWS V13.01,2013-01-23 09:59:00,
2013-01-23 12:04:00,60.3,43.1,29.91,SW,225,1.8,2.2,53,0.00,,---,0.00,VWS V13.01,2013-01-23 10:04:00,
2013-01-23 12:09:00,60.4,42.7,29.91,SW,225,13.4,13.4,52,0.00,,---,0.00,VWS V13.01,2013-01-23 10:09:00,
2013-01-23 12:14:00,60.4,42.7,29.91,SSW,202,2.5,2.5,52,0.00,,---,0.00,VWS V13.01,2013-01-23 10:14:00,
2013-01-23 12:19:00,60.6,42.9,29.91,West,270,3.1,11.2,52,0.00,,---,0.00,VWS V13.01,2013-01-23 10:19:00,
2013-01-23 12:24:00,60.6,42.4,29.91,South,180,4.3,9.2,51,0.00,,---,0.00,VWS V13.01,2013-01-23 10:24:00,
2013-01-23 12:29:00,60.8,42.1,29.91,SSW,202,4.9,8.9,50,0.00,,---,0.00,VWS V13.01,2013-01-23 10:29:00,
2013-01-23 12:34:00,61.0,42.2,29.90,West,270,5.6,7.2,50,0.00,,---,0.00,VWS V13.01,2013-01-23 10:34:00,
2013-01-23 12:39:00,61.0,42.2,29.91,SSW,202,3.8,6.9,50,0.00,,---,0.00,VWS V13.01,2013-01-23 10:39:00,
2013-01-23 12:44:00,61.0,42.2,29.91,SSW,202,7.2,12.8,50,0.00,,---,0.00,VWS V13.01,2013-01-23 10:44:00,
2013-01-23 12:49:00,61.2,42.4,29.90,SW,225,8.9,8.9,50,0.00,,---,0.00,VWS V13.01,2013-01-23 10:49:00,
2013-01-23 12:54:00,61.3,42.5,29.90,SSW,202,3.8,8.1,50,0.00,,---,0.00,VWS V13.01,2013-01-23 10:54:00,
2013-01-23 12:59:00,61.5,42.2,29.90,SE,135,0.0,8.1,49,0.00,,---,0.00,VWS V13.01,2013-01-23 10:59:00,
2013-01-23 13:04:00,61.5,41.7,29.90,SW,225,7.2,7.2,48,0.00,,---,0.00,VWS V13.01,2013-01-23 11:04:00,
2013-01-23 13:09:00,61.5,41.7,29.91,South,180,0.0,6.7,48,0.00,,---,0.00,VWS V13.01,2013-01-23 11:09:00,
2013-01-23 14:12:00,61.7,41.3,29.91,SSW,202,2.5,2.5,47,0.00,,---,0.00,VWS V13.01,2013-01-23 12:12:00,
2013-01-23 14:17:00,61.7,41.3,29.92,South,180,3.6,6.7,47,0.00,,---,0.00,VWS V13.01,2013-01-23 12:17:00,
2013-01-23 14:22:00,61.5,41.1,29.92,WSW,247,4.5,4.5,47,0.00,,---,0.00,VWS V13.01,2013-01-23 12:22:00,
2013-01-23 14:27:00,61.5,41.1,29.92,SW,225,5.6,6.9,47,0.00,,---,0.00,VWS V13.01,2013-01-23 12:27:00,
2013-01-23 14:32:00,61.5,41.1,29.92,South,180,4.0,4.0,47,0.00,,---,0.00,VWS V13.01,2013-01-23 12:32:00,
2013-01-23 14:37:00,61.5,41.1,29.93,SW,225,0.0,9.8,47,0.00,,---,0.00,VWS V13.01,2013-01-23 12:37:00,
2013-01-23 14:42:00,61.5,41.1,29.92,WSW,247,3.6,5.4,47,0.00,,---,0.00,VWS V13.01,2013-01-23 12:42:00,
2013-01-23 14:47:00,61.5,41.7,29.93,SSW,202,4.7,7.6,48,0.00,,---,0.00,VWS V13.01,2013-01-23 12:47:00,
2013-01-23 14:52:00,61.3,41.5,29.92,South,180,0.0,2.2,48,0.00,,---,0.00,VWS V13.01,2013-01-23 12:52:00,
2013-01-23 14:57:00,61.5,41.7,29.92,SSE,157,3.8,11.0,48,0.00,,---,0.00,VWS V13.01,2013-01-23 12:57:00,
2013-01-23 15:02:00,61.3,41.5,29.92,SSW,202,1.1,5.4,48,0.00,,---,0.00,VWS V13.01,2013-01-23 13:02:00,
2013-01-23 15:07:00,61.3,41.5,29.92,SSW,202,9.2,9.2,48,0.00,,---,0.00,VWS V13.01,2013-01-23 13:07:00,
2013-01-23 15:12:00,61.3,41.5,29.92,SSW,202,8.1,10.3,48,0.00,,---,0.00,VWS V13.01,2013-01-23 13:12:00,
2013-01-23 15:17:00,61.3,41.5,29.93,SSE,157,2.5,2.5,48,0.00,,---,0.00,VWS V13.01,2013-01-23 13:17:00,
2013-01-23 15:22:00,61.3,42.0,29.93,SW,225,3.8,3.8,49,0.00,,---,0.00,VWS V13.01,2013-01-23 13:22:00,
2013-01-23 15:27:00,61.0,41.7,29.92,SW,225,5.8,6.0,49,0.00,,---,0.00,VWS V13.01,2013-01-23 13:27:00,
2013-01-23 15:33:00,61.0,41.7,29.93,SSW,202,3.1,3.1,49,0.00,,---,0.00,VWS V13.01,2013-01-23 13:33:00,
2013-01-23 15:38:00,61.0,41.7,29.92,SE,135,2.7,6.3,49,0.00,,---,0.00,VWS V13.01,2013-01-23 13:38:00,
2013-01-23 15:43:00,61.0,41.7,29.93,SW,225,5.1,5.1,49,0.00,,---,0.00,VWS V13.01,2013-01-23 13:43:00,
2013-01-23 15:48:00,61.0,41.7,29.93,South,180,0.0,3.6,49,0.00,,---,0.00,VWS V13.01,2013-01-23 13:48:00,
2013-01-23 15:53:00,61.2,41.9,29.92,WNW,292,4.9,8.1,49,0.00,,---,0.00,VWS V13.01,2013-01-23 13:53:00,
2013-01-23 15:58:00,61.0,41.7,29.92,South,180,2.0,6.7,49,0.00,,---,0.00,VWS V13.01,2013-01-23 13:58:00,
2013-01-23 16:03:00,60.8,41.5,29.91,WNW,292,0.0,5.1,49,0.00,,---,0.00,VWS V13.01,2013-01-23 14:03:00,
2013-01-23 16:08:00,60.6,41.4,29.91,West,270,6.9,6.9,49,0.00,,---,0.00,VWS V13.01,2013-01-23 14:08:00,
2013-01-23 16:13:00,60.4,41.7,29.91,South,180,2.9,3.8,50,0.00,,---,0.00,VWS V13.01,2013-01-23 14:13:00,
2013-01-23 16:18:00,60.3,41.1,29.91,West,270,7.6,7.6,49,0.00,,---,0.00,VWS V13.01,2013-01-23 14:18:00,
2013-01-23 16:23:00,60.1,40.9,29.91,SE,135,0.0,5.6,49,0.00,,---,0.00,VWS V13.01,2013-01-23 14:23:00,
2013-01-23 16:28:00,59.9,40.7,29.92,South,180,0.0,1.3,49,0.00,,---,0.00,VWS V13.01,2013-01-23 14:28:00,
2013-01-23 16:33:00,59.7,40.5,29.92,NW,315,1.6,2.0,49,0.00,,---,0.00,VWS V13.01,2013-01-23 14:33:00,
2013-01-23 16:38:00,59.7,40.5,29.92,WSW,247,4.3,6.0,49,0.00,,---,0.00,VWS V13.01,2013-01-23 14:38:00,
2013-01-23 16:43:00,59.5,40.9,29.92,SSE,157,0.0,3.1,50,0.00,,---,0.00,VWS V13.01,2013-01-23 14:43:00,
2013-01-23 16:48:00,59.5,40.9,29.92,NNE,22,0.0,5.8,50,0.00,,---,0.00,VWS V13.01,2013-01-23 14:48:00,
2013-01-23 16:53:00,59.5,40.9,29.92,West,270,0.0,1.3,50,0.00,,---,0.00,VWS V13.01,2013-01-23 14:53:00,
2013-01-23 16:58:00,59.4,40.8,29.92,West,270,3.1,3.1,50,0.00,,---,0.00,VWS V13.01,2013-01-23 14:58:00,
2013-01-23 17:03:00,59.4,40.8,29.92,WNW,292,2.9,6.0,50,0.00,,---,0.00,VWS V13.01,2013-01-23 15:03:00,
2013-01-23 17:08:00,59.2,40.6,29.92,SSW,202,0.0,3.1,50,0.00,,---,0.00,VWS V13.01,2013-01-23 15:08:00,
2013-01-23 17:13:00,59.0,40.4,29.92,South,180,0.0,3.8,50,0.00,,---,0.00,VWS V13.01,2013-01-23 15:13:00,
2013-01-23 17:18:00,58.8,40.7,29.92,SSE,157,0.0,2.9,51,0.00,,---,0.00,VWS V13.01,2013-01-23 15:18:00,
2013-01-23 17:23:00,58.8,40.7,29.92,SSW,202,0.0,3.4,51,0.00,,---,0.00,VWS V13.01,2013-01-23 15:23:00,
2013-01-23 17:28:00,58.8,41.2,29.92,NW,315,0.0,2.5,52,0.00,,---,0.00,VWS V13.01,2013-01-23 15:28:00,
2013-01-23 17:34:00,58.6,41.0,29.92,South,180,0.0,2.2,52,0.00,,---,0.00,VWS V13.01,2013-01-23 15:34:00,
2013-01-23 17:39:00,58.5,41.0,29.92,SE,135,0.0,1.8,52,0.00,,---,0.00,VWS V13.01,2013-01-23 15:39:00,
2013-01-23 17:44:00,58.3,40.8,29.92,East,90,0.0,2.2,52,0.00,,---,0.00,VWS V13.01,2013-01-23 15:44:00,
2013-01-23 17:49:00,58.1,41.1,29.92,SE,135,0.0,2.2,53,0.00,,---,0.00,VWS V13.01,2013-01-23 15:49:00,
2013-01-23 17:54:00,57.9,41.4,29.92,SSE,157,0.0,2.2,54,0.00,,---,0.00,VWS V13.01,2013-01-23 15:54:00,
2013-01-23 17:59:00,57.7,41.2,29.92,WNW,292,0.0,2.2,54,0.00,,---,0.00,VWS V13.01,2013-01-23 15:59:00,
2013-01-23 18:04:00,57.4,41.4,29.92,South,180,0.0,2.2,55,0.00,,---,0.00,VWS V13.01,2013-01-23 16:04:00,
2013-01-23 18:09:00,57.2,41.2,29.93,South,180,0.0,2.2,55,0.00,,---,0.00,VWS V13.01,2013-01-23 16:09:00,
2013-01-23 18:14:00,57.0,41.0,29.93,SSE,157,0.0,2.2,55,0.00,,---,0.00,VWS V13.01,2013-01-23 16:14:00,
2013-01-23 18:19:00,56.8,41.3,29.93,South,180,0.0,1.6,56,0.00,,---,0.00,VWS V13.01,2013-01-23 16:19:00,
2013-01-23 18:24:00,56.7,41.2,29.92,SSW,202,0.0,2.2,56,0.00,,---,0.00,VWS V13.01,2013-01-23 16:24:00,
2013-01-23 18:29:00,56.5,41.0,29.93,ENE,67,0.0,1.6,56,0.00,,---,0.00,VWS V13.01,2013-01-23 16:29:00,
2013-01-23 18:34:00,56.3,40.8,29.93,SSW,202,1.3,1.3,56,0.00,,---,0.00,VWS V13.01,2013-01-23 16:34:00,
2013-01-23 18:39:00,56.1,40.6,29.93,SSE,157,0.0,1.3,56,0.00,,---,0.00,VWS V13.01,2013-01-23 16:39:00,
2013-01-23 18:44:00,56.1,41.1,29.92,ESE,112,0.0,4.0,57,0.00,,---,0.00,VWS V13.01,2013-01-23 16:44:00,
2013-01-23 18:49:00,56.1,41.1,29.92,ESE,112,0.0,1.6,57,0.00,,---,0.00,VWS V13.01,2013-01-23 16:49:00,
2013-01-23 18:54:00,55.9,40.9,29.92,SE,135,0.0,1.6,57,0.00,,---,0.00,VWS V13.01,2013-01-23 16:54:00,
2013-01-23 18:59:00,55.9,41.3,29.93,SE,135,0.0,1.6,58,0.00,,---,0.00,VWS V13.01,2013-01-23 16:59:00,
2013-01-23 19:04:00,55.9,41.3,29.92,SE,135,0.0,1.6,58,0.00,,---,0.00,VWS V13.01,2013-01-23 17:04:00,
2013-01-23 19:09:00,55.8,41.3,29.92,SSE,157,0.0,1.6,58,0.00,,---,0.00,VWS V13.01,2013-01-23 17:09:00,
2013-01-23 19:14:00,55.6,41.5,29.93,South,180,0.0,1.6,59,0.00,,---,0.00,VWS V13.01,2013-01-23 17:14:00,
2013-01-23 19:19:00,55.2,41.1,29.93,SSE,157,0.0,1.6,59,0.00,,---,0.00,VWS V13.01,2013-01-23 17:19:00,
2013-01-23 19:24:00,55.2,41.1,29.93,SE,135,0.0,1.6,59,0.00,,---,0.00,VWS V13.01,2013-01-23 17:24:00,
2013-01-23 19:29:00,55.2,41.6,29.93,South,180,0.0,1.6,60,0.00,,---,0.00,VWS V13.01,2013-01-23 17:29:00,
2013-01-23 19:34:00,55.0,41.4,29.93,SSE,157,0.0,1.6,60,0.00,,---,0.00,VWS V13.01,2013-01-23 17:34:00,
2013-01-23 19:39:00,55.0,41.4,29.93,NW,315,0.0,1.6,60,0.00,,---,0.00,VWS V13.01,2013-01-23 17:39:00,
2013-01-23 19:44:00,54.9,41.3,29.93,NW,315,0.0,1.6,60,0.00,,---,0.00,VWS V13.01,2013-01-23 17:44:00,
2013-01-23 19:49:00,54.7,41.1,29.93,NNW,337,0.0,1.6,60,0.00,,---,0.00,VWS V13.01,2013-01-23 17:49:00,
2013-01-23 19:54:00,54.7,41.1,29.93,NNW,337,0.0,1.6,60,0.00,,---,0.00,VWS V13.01,2013-01-23 17:54:00,
2013-01-23 19:59:00,54.5,40.9,29.93,NW,315,0.0,1.6,60,0.00,,---,0.00,VWS V13.01,2013-01-23 17:59:00,
2013-01-23 20:04:00,54.5,41.3,29.92,NNW,337,0.0,1.6,61,0.00,,---,0.00,VWS V13.01,2013-01-23 18:04:00,
2013-01-23 20:09:00,54.5,41.3,29.92,North,0,0.0,1.3,61,0.00,,---,0.00,VWS V13.01,2013-01-23 18:09:00,
2013-01-23 20:15:00,54.3,41.2,29.91,ENE,67,0.0,1.3,61,0.00,,---,0.00,VWS V13.01,2013-01-23 18:15:00,
2013-01-23 20:20:00,54.3,41.2,29.92,ENE,67,0.0,1.3,61,0.00,,---,0.00,VWS V13.01,2013-01-23 18:20:00,
2013-01-23 20:25:00,54.3,41.6,29.91,ENE,67,0.0,1.3,62,0.00,,---,0.00,VWS V13.01,2013-01-23 18:25:00,
2013-01-23 20:30:00,54.0,41.3,29.91,North,0,0.0,1.1,62,0.00,,---,0.00,VWS V13.01,2013-01-23 18:30:00,
2013-01-23 20:35:00,53.8,41.1,29.92,NW,315,0.0,1.8,62,0.00,,---,0.00,VWS V13.01,2013-01-23 18:35:00,
2013-01-23 20:40:00,53.8,41.1,29.91,NNE,22,0.0,1.8,62,0.00,,---,0.00,VWS V13.01,2013-01-23 18:40:00,
2013-01-23 20:45:00,53.4,41.1,29.91,SSE,157,0.0,1.8,63,0.00,,---,0.00,VWS V13.01,2013-01-23 18:45:00,
2013-01-23 20:50:00,53.4,41.1,29.91,SSE,157,0.0,1.8,63,0.00,,---,0.00,VWS V13.01,2013-01-23 18:50:00,
2013-01-23 20:55:00,53.4,41.1,29.92,SE,135,0.0,1.8,63,0.00,,---,0.00,VWS V13.01,2013-01-23 18:55:00,
2013-01-23 21:00:00,53.2,41.3,29.91,ENE,67,0.0,1.8,64,0.00,,---,0.00,VWS V13.01,2013-01-23 19:00:00,
2013-01-23 21:05:00,53.2,41.0,29.91,NE,45,0.0,1.8,63,0.00,,---,0.00,VWS V13.01,2013-01-23 19:05:00,
2013-01-23 21:10:00,52.9,41.1,29.91,NE,45,0.0,1.8,64,0.00,,---,0.00,VWS V13.01,2013-01-23 19:10:00,
2013-01-23 21:15:00,52.9,41.1,29.91,ENE,67,0.0,1.8,64,0.00,,---,0.00,VWS V13.01,2013-01-23 19:15:00,
2013-01-23 21:20:00,52.9,41.1,29.91,NE,45,0.0,1.8,64,0.00,,---,0.00,VWS V13.01,2013-01-23 19:20:00,
2013-01-23 21:25:00,52.7,40.9,29.92,NNE,22,0.0,1.8,64,0.00,,---,0.00,VWS V13.01,2013-01-23 19:25:00,
2013-01-23 21:30:00,52.7,40.9,29.91,North,0,0.0,1.8,64,0.00,,---,0.00,VWS V13.01,2013-01-23 19:30:00,
2013-01-23 21:35:00,52.5,40.7,29.92,North,0,0.0,1.6,64,0.00,,---,0.00,VWS V13.01,2013-01-23 19:35:00,
2013-01-23 21:40:00,52.5,41.1,29.92,NNE,22,0.0,1.6,65,0.00,,---,0.00,VWS V13.01,2013-01-23 19:40:00,
2013-01-23 21:45:00,52.3,40.9,29.92,NNE,22,0.0,1.3,65,0.00,,---,0.00,VWS V13.01,2013-01-23 19:45:00,
2013-01-23 21:50:00,52.3,40.9,29.92,NNE,22,0.0,1.3,65,0.00,,---,0.00,VWS V13.01,2013-01-23 19:50:00,
2013-01-23 21:55:00,52.3,40.9,29.91,NNE,22,0.0,1.3,65,0.00,,---,0.00,VWS V13.01,2013-01-23 19:55:00,
2013-01-23 22:00:00,52.3,41.3,29.92,NNE,22,0.0,1.3,66,0.00,,---,0.00,VWS V13.01,2013-01-23 20:00:00,
2013-01-23 22:05:00,52.3,41.3,29.92,NNE,22,0.0,1.3,66,0.00,,---,0.00,VWS V13.01,2013-01-23 20:05:00,
2013-01-23 22:10:00,52.3,41.3,29.92,NNE,22,0.0,1.3,66,0.00,,---,0.00,VWS V13.01,2013-01-23 20:10:00,
2013-01-23 22:15:00,52.2,41.2,29.92,ENE,67,0.0,1.3,66,0.00,,---,0.00,VWS V13.01,2013-01-23 20:15:00,
2013-01-23 22:20:00,52.2,41.2,29.92,ENE,67,0.0,1.3,66,0.00,,---,0.00,VWS V13.01,2013-01-23 20:20:00,
2013-01-23 22:25:00,52.2,41.6,29.91,NNE,22,0.0,1.3,67,0.00,,---,0.00,VWS V13.01,2013-01-23 20:25:00,
2013-01-23 22:30:00,52.0,41.4,29.92,NNE,22,0.0,1.3,67,0.00,,---,0.00,VWS V13.01,2013-01-23 20:30:00,
2013-01-23 22:35:00,52.0,41.4,29.92,NNE,22,0.0,1.3,67,0.00,,---,0.00,VWS V13.01,2013-01-23 20:35:00,
2013-01-23 22:40:00,52.0,41.4,29.92,North,0,0.0,1.3,67,0.00,,---,0.00,VWS V13.01,2013-01-23 20:40:00,
2013-01-23 22:45:00,52.0,41.4,29.91,North,0,0.0,1.1,67,0.00,,---,0.00,VWS V13.01,2013-01-23 20:45:00,
2013-01-23 22:50:00,51.8,41.2,29.91,North,0,0.0,1.1,67,0.00,,---,0.00,VWS V13.01,2013-01-23 20:50:00,
2013-01-23 22:55:00,51.8,41.2,29.91,NNE,22,0.0,1.1,67,0.00,,---,0.00,VWS V13.01,2013-01-23 20:55:00,
2013-01-23 23:00:00,51.8,41.2,29.92,NNW,337,0.0,1.1,67,0.00,,---,0.00,VWS V13.01,2013-01-23 21:00:00,
2013-01-23 23:05:00,51.6,41.0,29.92,NNW,337,0.0,1.1,67,0.00,,---,0.00,VWS V13.01,2013-01-23 21:05:00,
2013-01-23 23:10:00,51.6,41.4,29.92,North,0,1.3,2.9,68,0.00,,---,0.00,VWS V13.01,2013-01-23 21:10:00,
2013-01-23 23:15:00,51.6,41.4,29.92,NNE,22,1.6,1.6,68,0.00,,---,0.00,VWS V13.01,2013-01-23 21:15:00,
2013-01-23 23:20:00,51.6,41.4,29.92,NNE,22,4.0,4.3,68,0.00,,---,0.00,VWS V13.01,2013-01-23 21:20:00,
2013-01-23 23:25:00,51.6,41.4,29.92,NNE,22,0.0,2.2,68,0.00,,---,0.00,VWS V13.01,2013-01-23 21:25:00,
2013-01-23 23:31:00,51.6,41.8,29.92,NNW,337,0.0,2.2,69,0.00,,---,0.00,VWS V13.01,2013-01-23 21:31:00,
2013-01-23 23:36:00,51.6,41.8,29.92,NNW,337,0.0,2.2,69,0.00,,---,0.00,VWS V13.01,2013-01-23 21:36:00,
2013-01-23 23:41:00,51.4,41.6,29.92,North,0,0.9,1.1,69,0.00,,---,0.00,VWS V13.01,2013-01-23 21:41:00,
2013-01-23 23:46:00,51.4,41.6,29.92,North,0,0.0,2.0,69,0.00,,---,0.00,VWS V13.01,2013-01-23 21:46:00,
2013-01-23 23:51:00,51.4,41.6,29.92,NNE,22,1.6,2.0,69,0.00,,---,0.00,VWS V13.01,2013-01-23 21:51:00,
2013-01-23 23:56:00,51.4,41.6,29.92,NNW,337,0.0,3.1,69,0.00,,---,0.00,VWS V13.01,2013-01-23 21:56:00,